Dover AFB, DE

2:00 AM EDT on April 29, 2017 (GMT -0400)
Dover Air Force Base

Weather History for KDOV - May, 2013

Change the Weather History Date:

Saturday, May 4, 2013

  Actual Average Record
Temperature  
Mean Temperature 54 °F -  
Max Temperature 63 °F 70 °F 89 °F (1965)
Min Temperature 44 °F 49 °F 36 °F (1961)
Degree Days  
Heating Degree Days 12    
Growing Degree Days 4 (Base 50)    
Moisture  
Dew Point 45 °F    
Average Humidity 86    
Maximum Humidity 100    
Minimum Humidity 55    
Precipitation  
Precipitation 0.00 in - - ()
Sea Level Pressure  
Sea Level Pressure 30.28 in    
Wind  
Wind Speed 9 mph (NE)    
Max Wind Speed 18 mph    
Max Gust Speed 26 mph    
Visibility 10 miles    
Events      
Averages and records for this station are not official NWS values.
T = Trace of Precipitation, MM = Missing Value Source: NWS Daily Summary

Daily Weather History Graph

Daily Weather History Graph

Search for Another Location

Airport or City:

Trip Planner

Search our weather history database for the weather conditions in past years. The results will help you decide how hot, cold, wet, or windy it might be!

Date:

Astronomy

May. 04, 2013 Rise Set
Actual Time 5:59 AM EDT 7:58 PM EDT
Civil Twilight 5:30 AM EDT 8:27 PM EDT
Nautical Twilight 4:55 AM EDT 9:02 PM EDT
Astronomical Twilight 4:16 AM EDT 9:41 PM EDT
Moon 2:54 AM EDT (5/4) 2:55 PM EDT (5/4)
Length of Visible Light 14h 56m
Length of Day
13h 58m
Waning Crescent, 27% of the Moon is Illuminated
May 4
Waning Crescent
May 9
New
May 18
First Quarter
May 25
Full
May 31
Last Quarter

Hourly Weather History & Observations

Time (EDT) Temp. Windchill Dew Point Humidity Pressure Visibility Wind Dir Wind Speed Gust Speed Precip Events Conditions
12:55 AM 50.2 °F - 46.4 °F 87% 30.33 in 10.0 mi ENE 10.4 mph - N/A   Overcast
1:55 AM 49.5 °F - 46.2 °F 89% 30.31 in 10.0 mi NE 6.9 mph - N/A   Overcast
2:12 AM 48.2 °F - 46.4 °F 93% 30.30 in 10.0 mi NE 5.8 mph - N/A   Overcast
2:44 AM 48.2 °F - 44.6 °F 87% 30.29 in 10.0 mi ENE 9.2 mph - N/A   Scattered Clouds
2:55 AM 46.8 °F - 45.0 °F 93% 30.29 in 10.0 mi NE 5.8 mph - N/A   Partly Cloudy
3:35 AM 48.2 °F - 44.6 °F 87% 30.29 in 10.0 mi NE 5.8 mph - N/A   Mostly Cloudy
3:49 AM 48.2 °F - 44.6 °F 87% 30.29 in 10.0 mi NE 8.1 mph - N/A   Scattered Clouds
3:55 AM 46.9 °F - 44.2 °F 90% 30.29 in 10.0 mi NE 10.4 mph - N/A   Scattered Clouds
4:55 AM 44.8 °F 41.0 °F 44.6 °F 99% 30.28 in 10.0 mi NNE 6.9 mph - N/A   Scattered Clouds
5:18 AM 44.6 °F 40.7 °F 44.6 °F 100% 30.28 in 10.0 mi NNE 6.9 mph - N/A   Mostly Cloudy
5:20 AM 44.6 °F 40.7 °F 44.6 °F 100% 30.28 in 10.0 mi NNE 6.9 mph - N/A   Mostly Cloudy
5:22 AM 44.6 °F 40.7 °F 44.6 °F 100% 30.28 in 10.0 mi NNE 6.9 mph - N/A   Scattered Clouds
5:24 AM 44.6 °F 40.7 °F 44.6 °F 100% 30.28 in 10.0 mi NNE 6.9 mph - N/A   Mostly Cloudy
5:28 AM 44.6 °F 40.2 °F 44.6 °F 100% 30.28 in 10.0 mi NNE 8.1 mph - N/A   Scattered Clouds
5:29 AM 46.4 °F 42.4 °F 44.6 °F 93% 30.28 in 10.0 mi NNE 8.1 mph - N/A   Mostly Cloudy
5:32 AM 46.4 °F 42.9 °F 46.4 °F 100% 30.29 in 10.0 mi NNE 6.9 mph - N/A   Scattered Clouds
5:34 AM 46.4 °F 43.5 °F 46.4 °F 100% 30.29 in 10.0 mi NNE 5.8 mph - N/A   Mostly Cloudy
5:55 AM 46.2 °F 42.2 °F 45.9 °F 99% 30.29 in 10.0 mi NNE 8.1 mph - N/A   Mostly Cloudy
6:03 AM 46.4 °F 41.9 °F 46.4 °F 100% 30.29 in 10.0 mi NNE 9.2 mph - N/A   Scattered Clouds
6:08 AM 46.4 °F 42.4 °F 46.4 °F 100% 30.29 in 10.0 mi NNE 8.1 mph - N/A   Mostly Cloudy
6:33 AM 46.4 °F 42.9 °F 46.4 °F 100% 30.30 in 10.0 mi NNE 6.9 mph - N/A   Overcast
6:34 AM 46.4 °F 42.9 °F 46.4 °F 100% 30.30 in 10.0 mi NNE 6.9 mph - N/A   Overcast
6:36 AM 46.4 °F 42.4 °F 46.4 °F 100% 30.30 in 10.0 mi NNE 8.1 mph - N/A   Mostly Cloudy
6:37 AM 46.4 °F 42.9 °F 46.4 °F 100% 30.30 in 10.0 mi NNE 6.9 mph - N/A   Mostly Cloudy
6:54 AM 48.2 °F - 48.2 °F 100% 30.30 in 10.0 mi NNE 8.1 mph - N/A   Mostly Cloudy
6:55 AM 47.7 °F - 47.5 °F 99% 30.30 in 10.0 mi NNE 8.1 mph - N/A   Mostly Cloudy
6:58 AM 48.2 °F - 48.2 °F 100% 30.30 in 10.0 mi NNE 9.2 mph - N/A   Scattered Clouds
7:55 AM 50.7 °F - 47.1 °F 87% 30.30 in 10.0 mi NNE 11.5 mph - N/A   Clear
8:55 AM 52.9 °F - 46.9 °F 80% 30.30 in 10.0 mi NE 10.4 mph - N/A   Clear
9:55 AM 54.5 °F - 47.7 °F 78% 30.30 in 10.0 mi NE 6.9 mph - N/A   Clear
10:55 AM 57.7 °F - 47.1 °F 68% 30.30 in 10.0 mi ENE 11.5 mph - N/A   Clear
11:55 AM 59.5 °F - 47.1 °F 63% 30.28 in 10.0 mi East 9.2 mph - N/A   Clear
12:55 PM 61.0 °F - 47.5 °F 61% 30.27 in 10.0 mi ESE 6.9 mph - N/A   Clear
1:55 PM 63.0 °F - 46.4 °F 55% 30.26 in 10.0 mi East 9.2 mph - N/A   Clear
2:55 PM 62.4 °F - 48.6 °F 60% 30.25 in 10.0 mi ESE 12.7 mph - N/A   Clear
3:55 PM 61.5 °F - 46.2 °F 57% 30.23 in 10.0 mi East 18.4 mph 26.5 mph N/A   Clear
4:55 PM 59.5 °F - 43.5 °F 55% 30.23 in 10.0 mi East 16.1 mph 26.5 mph N/A   Clear
5:55 PM 57.4 °F - 42.6 °F 58% 30.22 in 10.0 mi East 15.0 mph 24.2 mph N/A   Clear
6:55 PM 55.0 °F - 42.1 °F 62% 30.22 in 10.0 mi East 10.4 mph 19.6 mph N/A   Clear
7:55 PM 52.2 °F - 42.3 °F 69% 30.22 in 10.0 mi East 10.4 mph 17.3 mph N/A   Clear
8:55 PM 50.5 °F - 42.8 °F 75% 30.23 in 10.0 mi East 8.1 mph 17.3 mph N/A   Clear
9:55 PM 49.6 °F - 42.8 °F 77% 30.25 in 10.0 mi East 11.5 mph - N/A   Clear
10:55 PM 48.7 °F - 42.1 °F 78% 30.25 in 10.0 mi ENE 13.8 mph - N/A   Clear
11:55 PM 47.7 °F - 42.1 °F 81% 30.25 in 10.0 mi East 15.0 mph - N/A   Scattered Clouds